Regional Weather Roundup
Issued by NWS

Home | Current Version | Previous Version | Graphics & Text | Print | Product List | Glossary On
Versions: 1 2 3 4 5 6 7 8 9 10 11 12 13 14 15 16 17 18 19 20 21 22 23 24 25 26 27
000
ASUS45 KBOU 262107
RWRCO

WEATHER ROUNDUP FOR COLORADO
NATIONAL WEATHER SERVICE DENVER/BOULDER CO
300 PM MDT SUN MAR 26 2017

NOTE: "FAIR" INDICATES FEW OR NO CLOUDS BELOW 12000 FEET WITH NO
SIGNIFICANT WEATHER AND/OR OBSTRUCTIONS TO VISIBILITY.

COZ001>005-013-030-031-262200-
...NORTHWEST COLORADO...

CITY           SKY/WX    TMP DP  RH WIND       PRES   REMARKS
CRAIG          CLOUDY    50  24  36 NW10G17   29.98F
HAYDEN         CLOUDY    46  25  42 W8        29.98F
MEEKER         CLOUDY    49  27  42 N5        29.99F
MOUNT WERNER   NOT AVBL
STEAMBOAT SPGS CLOUDY    40  32  72 E7        29.99F
WALDEN         NOT AVBL
$$

COZ006>008-011-262200-
...WEST CENTRAL VALLEYS...

CITY           SKY/WX    TMP DP  RH WIND       PRES   REMARKS
GRAND JUNCTION FAIR      61  28  28 W9        29.93F
MONTROSE       PTSUNNY   52  35  52 S14       29.98F
EAGLE          PTSUNNY   50  28  43 E7        29.96F
RIFLE          FAIR      57  27  31 W10       29.95F
DELTA          FAIR      64  23  20 W9G23     29.93F
NUCLA          PTSUNNY   52  30  43 W7        30.01F
$$

COZ017>023-064>068-262200-
...SOUTHWEST COLORADO...

CITY           SKY/WX    TMP DP  RH WIND       PRES   REMARKS
DURANGO        FAIR      56  28  34 SW8G18    29.93F
CORTEZ         FAIR      54  35  48 NW10      29.98F
PAGOSA SPRINGS FAIR      48  29  47 S3        29.99F
TELLURIDE      CLOUDY    40  29  67 W13       30.05S
WOLF CREEK PAS SNOW      27  27 100 SW12      30.11F VSB 1/4 WCI  16
$$

COZ009-010-012-014-032>034-037-058>063-262200-
...CENTRAL COLORADO...

CITY           SKY/WX    TMP DP  RH WIND       PRES   REMARKS
ASPEN          CLOUDY    46  25  43 NW6G16    29.96S
BUENA VISTA    PTSUNNY   51  14  22 NW13G22   29.89F
COPPER MTN     NOT AVBL
BERTHOUD PASS  CLOUDY    21  10  63 NW25G35   30.03S WCI   4
COTTONWOOD PAS PTSUNNY   50   7  17 SW7G20    29.96S
GUNNISON       FAIR      47  29  49 SW16G23   29.96F
KREMMLING      FAIR      54  32  43 N12G20    29.96F
LEADVILLE      CLOUDY    36  21  54 W15G21    29.98R
MONARCH PASS   CLOUDY    28  23  80 W18G39    30.14S WCI  16
SALIDA         FAIR      55  28  35 W32       29.98S
SUNLIGHT       PTSUNNY   30  27  86 SW6       30.09S WCI  24
WILKERSON PASS LGT SNOW  32  28  86 NW5       30.02S WCI  27
$$

COZ069>075-262200-
...SAN LUIS VALLEY/SANGRE DE CRISTO MOUNTAINS...

CITY           SKY/WX    TMP DP  RH WIND       PRES   REMARKS
ALAMOSA        FAIR      57  27  31 NW12G18   29.90F
LA VETA PASS   NOT AVBL
SAGUACHE       FAIR      54  19  26 NW23G30   29.92S
$$

COZ035-036-038>040-262200-
...NORTHERN COLORADO FRONT RANGE...

CITY           SKY/WX    TMP DP  RH WIND       PRES   REMARKS
DENVER INTL AP CLOUDY    51  34  52 N12       29.91S
DMNS CITY PARK   N/A     50  36  59 NW8       29.92R
AURORA         PTSUNNY   51  35  52 NE13      29.91S
FRONT RANGE AP PTSUNNY   52  36  54 NE7       29.92R
ERIE MUNI ARPT DRIZZLE   49  36  60 NE13      29.92R
BOULDER MUN AP LGT RAIN  46  43  87 W5        29.93R
CENTENNIAL     LGT RAIN  50  34  54 N10       29.91S
BROOMFIELD     CLOUDY    46  41  81 W7        29.93R
FORT COLLINS   LGT RAIN  49  39  68 NE8       29.93R
LONGMONT       CLOUDY    51  38  60 NE14      29.95R
$$

COZ041-046-047-076>085-087-088-262200-
...PIKES PEAK/PALMER DIVIDE AND SOUTHERN FOOTHILLS...

CITY           SKY/WX    TMP DP  RH WIND       PRES   REMARKS
COLO. SPRINGS  PTSUNNY   53  30  41 N21G29    29.90S
A. F. ACADEMY  FAIR      49  31  49 N13       29.90S
SCHRIEVER AFB  FAIR      50  32  49 N17G31    29.90S
ELLICOTT         N/A    N/A N/A N/A N16G25    29.89R
FALCON         PTSUNNY   49  32  52 N12G22    29.92S
FORT CARSON    PTSUNNY   54  30  39 N22G29    29.87S
LIMON          CLOUDY    48  36  63 N15       29.90R
MONUMENT HILL  PTSUNNY   43  32  65 NE8       29.94S
TRINIDAD       CLOUDY    53  40  61 NW16      29.88S
$$

COZ042>045-048>051-090-091-262200-
...NORTHEAST COLORADO...

CITY           SKY/WX    TMP DP  RH WIND       PRES   REMARKS
GREELEY ARPT   FAIR      53  36  52 NE13G21   29.92S
AKRON          CLOUDY    50  35  56 N8        29.89S
BURLINGTON     CLOUDY    47  41  80 N12       29.87R
WRAY           CLOUDY    54  41  62 N6        29.87S
STERLING       CLOUDY    52  41  66 CALM      29.87S
HOLYOKE        FAIR      55  37  50 N10       29.88S
FORT MORGAN    CLOUDY    50  32  50 NW5       29.91S
$$

COZ086-089-092>099-262200-
...SOUTHEAST COLORADO...

CITY           SKY/WX    TMP DP  RH WIND       PRES   REMARKS
PUEBLO         CLOUDY    58  33  39 NE22G30   29.86S
LA JUNTA       CLOUDY    47  38  71 N12       29.89R
LAMAR          CLOUDY    44  36  73 N7        29.85R
SPRINGFIELD      N/A     44  36  73 N16       29.83R
$$




USA.gov is the U.S. government's official web portal to all federal, state and local government web resources and services.